User: anonymous   Login
Location: Bacharowice
(49.9333°N, 19.5833°E)
Time: 03:24:25
(UTC+00:00)
Language:

COSMOS 2251 DEB - Orbit

View from above orbital plane
View from above orbital plane
View from above satellite
View from above satellite

Ground track
Ground track

The orbit data is extracted from the following two-line orbital elements,

1 33918U 93036DX  21332.51976998  .00005404  00000-0  74360-3 0  9996
2 33918  74.0594  80.0607 0050121 135.1825 357.1822 14.77649430682830
Epoch (UTC): 28 November 2021 12:28:28
Eccentricity: 0.0050121
inclination: 74.0594°
perigee height: 601 km
apogee height: 672 km
right ascension of ascending node: 80.0607°
argument of perigee: 135.1825°
revolutions per day: 14.77649430
mean anomaly at epoch: 357.1822°
orbit number at epoch: 68283

The dashed part of the orbit path shows where the satellite is in the earth's shadow,  

DLR